Voltar ao catálogo

COSMOS 1655

AtivoNavegaçãoPO
NORAD 15751·PAYLOAD·🇷🇺 Russia

Lançado May 30, 1985 de Plesetsk Cosmodrome

Loading…

Próximas Passagens (próximas 24 horas)

TLE

AtualizadoSource: Space-Track

Época: Sep 14, 2026, 13:30 UTC

1 15751U 85041A   26257.56284266  .00000056  00000-0  45036-4 0  9991
2 15751  82.9537   0.8290 0026105 206.1429 164.5577 13.71942607 66953

Acompanhe COSMOS 1655 em tempo real com AllMySat

Download on the App Store